Back to catalog

BREEZE-M R/B

AliveHEO
NORAD 39494·ROCKET BODY·🇷🇺 Russia

Launched Dec 8, 2013 from Baikonur Cosmodrome

Loading…

Next Passes (next 24 hours)

TLE

FreshSource: Space-Track

Epoch: Sep 12, 2026, 15:52 UTC

1 39494U 13073C   26255.66143240 -.00000393  00000-0  00000-0 0  9995
2 39494  24.6356 178.0249 7400982 176.5792 195.3843  1.09861927 50231

Track BREEZE-M R/B in real time with AllMySat

Download on the App Store